This is the latest recevied weather packets stored in our database for station/object KB9MLJ. If no packets are shown the sender has not sent any weather packets the latest 10 day(s).
| Time | Temp. | Humidity | Pressure | Rain* | Wind** | Luminosity | Snow |
|---|---|---|---|---|---|---|---|
| 1777128872 | 10° C | 91% | 1014.4 hPa | 0 mm | - | 231 W/m² | - |
| 1777128569 | 10° C | 92% | 1014.7 hPa | 0 mm | - | 222 W/m² | - |
| 1777128266 | 10° C | 92% | 1014.4 hPa | 0 mm | - | 185 W/m² | - |
| 1777127964 | 10° C | 92% | 1014.4 hPa | 0 mm | - | 176 W/m² | - |
| 1777127662 | 9.44° C | 92% | 1014.7 hPa | 0 mm | - | 182 W/m² | - |
| 1777127358 | 9.44° C | 93% | 1014.7 hPa | 0 mm | - | 157 W/m² | - |
| 1777127055 | 9.44° C | 93% | 1014.4 hPa | 0 mm | - | 143 W/m² | - |
| 1777126750 | 9.44° C | 93% | 1014.7 hPa | 0 mm | - | 144 W/m² | - |
| 1777126447 | 9.44° C | 93% | 1015 hPa | 0 mm | - | 119 W/m² | - |
| 1777126142 | 9.44° C | 93% | 1014.7 hPa | 0 mm | - | 119 W/m² | - |
| 1777125838 | 9.44° C | 94% | 1014.7 hPa | 0 mm | - | 114 W/m² | - |
| 1777125534 | 9.44° C | 94% | 1014.7 hPa | 0 mm | - | 141 W/m² | - |
| 1777125230 | 8.89° C | 95% | 1015 hPa | 0 mm | - | 156 W/m² | - |
| 1777124925 | 8.89° C | 95% | 1014.7 hPa | 0 mm | - | 126 W/m² | - |
| 1777124622 | 8.89° C | 96% | 1015 hPa | 0 mm | - | 130 W/m² | - |
| 1777124317 | 8.89° C | 96% | 1014.7 hPa | 0 mm | - | 111 W/m² | - |
| 1777124015 | 8.89° C | 96% | 1014.7 hPa | 0 mm | - | 115 W/m² | - |
| 1777123711 | 8.33° C | 97% | 1015 hPa | 0 mm | - | 90 W/m² | - |
| 1777123407 | 8.33° C | 97% | 1015 hPa | 0 mm | - | 101 W/m² | - |
| 1777123103 | 8.33° C | 97% | 1015.4 hPa | 0 mm | - | 88 W/m² | - |
| 1777122800 | 8.33° C | 97% | 1015 hPa | 0 mm | - | 83 W/m² | - |
| 1777122496 | 8.33° C | 97% | 1015 hPa | 0 mm | - | 72 W/m² | - |
| 1777122193 | 8.33° C | 97% | 1014.7 hPa | 0 mm | - | 68 W/m² | - |
| 1777121888 | 7.78° C | 97% | 1014.7 hPa | 0 mm | - | 64 W/m² | - |
| 1777121585 | 7.78° C | 98% | 1014.7 hPa | 0 mm | - | 67 W/m² | - |
* Rain latest hour (hover to see other rain measurements)
** Current wind speed in m/s (hover to see current wind gust speed)